Tehachapi, CA

11:55 PM PDT on May 25, 2017 (GMT -0700)
Tehachapi Municipal

Weather History for KTSP - June, 2013

Change the Weather History Date:

Wednesday, June 5, 2013

  Actual Average Record
Temperature  
Mean Temperature 70 °F -  
Max Temperature 82 °F 77 °F 86 °F (2016)
Min Temperature 57 °F 50 °F 39 °F (2012)
Cooling Degree Days 4    
Growing Degree Days 20 (Base 50)    
Moisture  
Dew Point 49 °F    
Average Humidity 47    
Maximum Humidity 67    
Minimum Humidity 30    
Precipitation  
Precipitation 0.00 in - - ()
Sea Level Pressure  
Sea Level Pressure 30.05 in    
Wind  
Wind Speed 10 mph (WNW)    
Max Wind Speed 18 mph    
Max Gust Speed 23 mph    
Visibility 10 miles    
Events      
Averages and records for this station are not official NWS values.
T = Trace of Precipitation, MM = Missing Value Source: NWS Daily Summary

Daily Weather History Graph

Daily Weather History Graph

Search for Another Location

Airport or City:

Trip Planner

Search our weather history database for the weather conditions in past years. The results will help you decide how hot, cold, wet, or windy it might be!

Date:

Astronomy

Jun. 05, 2013 Rise Set
Actual Time 5:39 AM PDT 8:05 PM PDT
Civil Twilight 5:10 AM PDT 8:34 PM PDT
Nautical Twilight 4:33 AM PDT 9:11 PM PDT
Astronomical Twilight 3:53 AM PDT 9:51 PM PDT
Moon 3:41 AM PDT (6/5) 5:40 PM PDT (6/5)
Length of Visible Light 15h 24m
Length of Day
14h 25m
Waning Crescent, 7% of the Moon is Illuminated
Jun 5
Waning Crescent
Jun 8
New
Jun 16
First Quarter
Jun 23
Full
Jun 29
Last Quarter

Hourly Weather History & Observations

Time (PDT) Temp. Dew Point Humidity Pressure Visibility Wind Dir Wind Speed Gust Speed Precip Events Conditions
12:15 AM 62.6 °F 48.2 °F 59% 30.05 in 10.0 mi West 6.9 mph - N/A   Clear
12:35 AM 59.0 °F 48.2 °F 67% 30.05 in 10.0 mi West 8.1 mph - N/A   Clear
12:55 AM 59.0 °F 48.2 °F 67% 30.05 in 10.0 mi West 8.1 mph - N/A   Clear
1:15 AM 59.0 °F 48.2 °F 67% 30.05 in 10.0 mi West 8.1 mph - N/A   Clear
1:35 AM 59.0 °F 48.2 °F 67% 30.04 in 10.0 mi West 8.1 mph - N/A   Clear
1:55 AM 59.0 °F 48.2 °F 67% 30.04 in 10.0 mi West 8.1 mph - N/A   Clear
2:15 AM 59.0 °F 48.2 °F 67% 30.04 in 10.0 mi West 8.1 mph - N/A   Clear
2:35 AM 59.0 °F 46.4 °F 63% 30.05 in 10.0 mi West 8.1 mph - N/A   Clear
2:55 AM 59.0 °F 46.4 °F 63% 30.04 in 10.0 mi West 8.1 mph - N/A   Clear
3:15 AM 57.2 °F 46.4 °F 67% 30.04 in 10.0 mi West 8.1 mph - N/A   Clear
3:35 AM 59.0 °F 48.2 °F 67% 30.04 in 10.0 mi West 6.9 mph - N/A   Clear
3:55 AM 59.0 °F 48.2 °F 67% 30.04 in 10.0 mi West 6.9 mph - N/A   Clear
4:15 AM - - N/A% - 10.0 mi North - - N/A   Unknown
4:35 AM 57.2 °F 46.4 °F 67% 30.04 in 10.0 mi Calm Calm - N/A   Unknown
4:55 AM 59.0 °F 48.2 °F 67% 30.04 in 10.0 mi Calm Calm - N/A   Clear
5:15 AM - - N/A% - - North - - N/A   Unknown
5:35 AM - - N/A% 30.05 in - West 3.5 mph - N/A   Unknown
5:55 AM 57.2 °F 46.4 °F 67% 30.06 in 10.0 mi West 3.5 mph - N/A   Unknown
6:15 AM - - N/A% - - North - - N/A   Unknown
6:35 AM 59.0 °F 48.2 °F 67% 30.06 in 9.0 mi West 3.5 mph - N/A   Unknown
6:55 AM 62.6 °F 48.2 °F 59% 30.06 in 10.0 mi Calm Calm - N/A   Clear
7:15 AM 64.4 °F 48.2 °F 56% - 10.0 mi North - - N/A   Clear
7:35 AM - - N/A% - - North - - N/A   Unknown
7:55 AM - - N/A% - - North - - N/A   Unknown
8:15 AM 68.0 °F 48.2 °F 49% 30.07 in 10.0 mi NW 8.1 mph - N/A   Unknown
8:35 AM 71.6 °F 46.4 °F 41% 30.08 in 10.0 mi NW 9.2 mph - N/A   Clear
8:55 AM 71.6 °F 46.4 °F 41% 30.08 in 10.0 mi NW 11.5 mph - N/A   Clear
9:15 AM 73.4 °F 46.4 °F 38% 30.07 in 10.0 mi NW 9.2 mph - N/A   Clear
9:35 AM 73.4 °F 48.2 °F 41% 30.07 in 10.0 mi NW 9.2 mph - N/A   Clear
9:55 AM 75.2 °F 46.4 °F 36% 30.06 in 10.0 mi NW 9.2 mph - N/A   Clear
10:15 AM 77.0 °F 46.4 °F 34% 30.06 in 10.0 mi NW 10.4 mph - N/A   Clear
10:35 AM 77.0 °F 48.2 °F 36% 30.06 in 10.0 mi WNW 10.4 mph - N/A   Clear
10:55 AM 78.8 °F 48.2 °F 34% 30.06 in 10.0 mi NW 11.5 mph - N/A   Clear
11:15 AM 80.6 °F 48.2 °F 32% 30.06 in 10.0 mi NW 12.7 mph 17.3 mph N/A   Clear
11:35 AM 80.6 °F 48.2 °F 32% 30.05 in 10.0 mi NW 13.8 mph - N/A   Clear
11:55 AM 82.4 °F 48.2 °F 30% 30.05 in 10.0 mi NW 13.8 mph 19.6 mph N/A   Clear
12:15 PM 82.4 °F 48.2 °F 30% 30.05 in 10.0 mi NW 13.8 mph - N/A   Clear
12:35 PM 82.4 °F 48.2 °F 30% 30.04 in 10.0 mi NW 16.1 mph - N/A   Clear
12:55 PM 82.4 °F 50.0 °F 32% 30.04 in 10.0 mi NW 17.3 mph 23.0 mph N/A   Clear
1:15 PM 82.4 °F 50.0 °F 32% 30.04 in 10.0 mi NW 17.3 mph - N/A   Clear
1:35 PM 82.4 °F 50.0 °F 32% 30.04 in 10.0 mi NW 17.3 mph 20.7 mph N/A   Clear
1:55 PM 82.4 °F 50.0 °F 32% 30.03 in 10.0 mi NW 17.3 mph - N/A   Clear
2:15 PM 82.4 °F 50.0 °F 32% 30.03 in 10.0 mi NW 17.3 mph 23.0 mph N/A   Clear
2:35 PM 82.4 °F 50.0 °F 32% 30.03 in 10.0 mi NW 18.4 mph 23.0 mph N/A   Clear
2:55 PM 82.4 °F 50.0 °F 32% 30.03 in 10.0 mi NW 18.4 mph 23.0 mph N/A   Clear
3:15 PM 82.4 °F 50.0 °F 32% 30.03 in 10.0 mi NW 17.3 mph - N/A   Clear
3:35 PM 82.4 °F 50.0 °F 32% 30.02 in 10.0 mi NW 18.4 mph 23.0 mph N/A   Clear
3:55 PM 80.6 °F 50.0 °F 34% 30.02 in 10.0 mi NW 17.3 mph 21.9 mph N/A   Clear
4:15 PM 80.6 °F 50.0 °F 34% 30.02 in 10.0 mi NW 18.4 mph 23.0 mph N/A   Clear
4:35 PM 80.6 °F 50.0 °F 34% 30.02 in 10.0 mi NW 17.3 mph 23.0 mph N/A   Clear
4:55 PM 80.6 °F 50.0 °F 34% 30.02 in 10.0 mi NW 15.0 mph 20.7 mph N/A   Clear
5:15 PM 80.6 °F 50.0 °F 34% 30.01 in 10.0 mi NW 16.1 mph 21.9 mph N/A   Clear
5:35 PM 78.8 °F 50.0 °F 36% 30.02 in 10.0 mi NW 16.1 mph 21.9 mph N/A   Clear
5:55 PM 77.0 °F 50.0 °F 39% 30.02 in 10.0 mi NW 12.7 mph - N/A   Clear
6:15 PM 77.0 °F 50.0 °F 39% 30.02 in 10.0 mi NW 15.0 mph 20.7 mph N/A   Clear
6:35 PM 75.2 °F 50.0 °F 41% 30.02 in 10.0 mi NW 16.1 mph 20.7 mph N/A   Clear
6:55 PM 75.2 °F 50.0 °F 41% 30.03 in 10.0 mi NW 16.1 mph 21.9 mph N/A   Clear
7:15 PM 73.4 °F 50.0 °F 44% 30.04 in 10.0 mi NW 16.1 mph 20.7 mph N/A   Clear
7:35 PM 73.4 °F 50.0 °F 44% 30.04 in 10.0 mi WNW 15.0 mph - N/A   Clear
7:55 PM 71.6 °F 50.0 °F 46% 30.05 in 10.0 mi West 11.5 mph - N/A   Clear
8:15 PM 71.6 °F 50.0 °F 46% 30.05 in 10.0 mi West 11.5 mph - N/A   Clear
8:35 PM 69.8 °F 50.0 °F 49% 30.06 in 10.0 mi West 10.4 mph - N/A   Clear
8:55 PM 68.0 °F 50.0 °F 52% 30.06 in 10.0 mi West 8.1 mph - N/A   Clear
9:15 PM 68.0 °F 50.0 °F 52% 30.06 in 10.0 mi West 6.9 mph - N/A   Clear
9:35 PM 66.2 °F 50.0 °F 56% 30.07 in 10.0 mi NW 4.6 mph - N/A   Clear
9:55 PM 66.2 °F 50.0 °F 56% 30.07 in 10.0 mi West 4.6 mph - N/A   Clear
10:15 PM 64.4 °F 50.0 °F 59% 30.07 in 10.0 mi NW 9.2 mph - N/A   Clear
10:35 PM 64.4 °F 50.0 °F 59% 30.07 in 10.0 mi NW 9.2 mph - N/A   Clear
10:55 PM 66.2 °F 50.0 °F 56% 30.07 in 10.0 mi NW 9.2 mph - N/A   Clear
11:15 PM 64.4 °F 50.0 °F 59% 30.07 in 10.0 mi West 5.8 mph - N/A   Clear
11:35 PM 64.4 °F 50.0 °F 59% 30.07 in 10.0 mi NW 5.8 mph - N/A   Clear
11:55 PM 64.4 °F 50.0 °F 59% 30.07 in 10.0 mi West 4.6 mph - N/A   Clear